Tracking 19199 objects as of 25-Jun-2018
HD Live streaming from Space Station
objects crossing your sky now

FENGYUN 1C DEB

Track FENGYUN 1C DEB now!
10-day predictions


NORAD ID: 31089
Int'l Code: 1999-025BGK
Perigee: 798.5 km
Apogee: 1,111.8 km
Inclination: 99.0 °
Period: 104.0 minutes
Semi major axis: 7326 km
RCS: 0.0058 m2 (small)
Launch date: May 10, 1999
Source: People's Republic of China (PRC)
Launch site: Taiyaun Space Center, China (TSC)

Note: This is SATELLITE DEBRIS
aabbcc
Your satellite tracking list
Your tracking list is empty




NASA's NSSDC Master Catalog

Two Line Element Set (TLE):
1 31089U 99025BGK 18176.47324368  .00000183  00000-0  16770-3 0  9992
2 31089  98.9888  57.5379 0213806  37.0248  83.7618 13.84479653571357
Source of the keplerian elements: AFSPC